| time (UTC) | temp F | wind direction | speed MPH | gust MPH | rain 1hr in | rain 24hr in | rain mn in | humidity % | barometer mb |
| 20260504220228 | 77 | 40 | 3.0 | 10.0 | 0.00 | 0.00 | 0.00 | 34 | 1011.0 |
| 20260504215730 | 77 | 56 | 2.0 | 7.0 | 0.00 | 0.00 | 0.00 | 32 | 1011.0 |
| 20260504215500 | 78 | 39 | 1.0 | 5.0 | 0.00 | 0.00 | 0.00 | 33 | 1011.1 |
| 20260504214955 | 77 | 18 | 1.0 | 6.0 | 0.00 | 0.00 | 0.00 | 33 | 1011.3 |
| 20260504214502 | 77 | 210 | 2.0 | 6.0 | 0.00 | 0.00 | 0.00 | 33 | 1011.3 |
| 20260504213730 | 77 | 62 | 3.0 | 7.0 | 0.00 | 0.00 | 0.00 | 33 | 1011.4 |
| 20260504213457 | 78 | 41 | 3.0 | 9.0 | 0.00 | 0.00 | 0.00 | 32 | 1011.5 |
| 20260504212730 | 78 | 351 | 2.0 | 9.0 | 0.00 | 0.00 | 0.00 | 33 | 1011.4 |
| 20260504212455 | 78 | 75 | 2.0 | 5.0 | 0.00 | 0.00 | 0.00 | 32 | 1011.8 |
| 20260504211728 | 78 | 160 | 1.0 | 5.0 | 0.00 | 0.00 | 0.00 | 32 | 1011.6 |
| 20260504211228 | 78 | 34 | 2.0 | 6.0 | 0.00 | 0.00 | 0.00 | 31 | 1011.7 |
| 20260504210729 | 78 | 130 | 2.0 | 6.0 | 0.00 | 0.00 | 0.00 | 33 | 1011.8 |
| 20260504210229 | 79 | 143 | 2.0 | 6.0 | 0.00 | 0.00 | 0.00 | 32 | 1011.8 |
| 20260504210007 | 77 | 108 | 2.0 | 6.0 | 0.00 | 0.00 | 0.00 | 33 | 1011.9 |
| 20260504205230 | 78 | 56 | 1.0 | 5.0 | 0.00 | 0.00 | 0.00 | 32 | 1011.9 |
| 20260504204731 | 78 | 91 | 2.0 | 7.0 | 0.00 | 0.00 | 0.00 | 33 | 1011.9 |
| 20260504204228 | 77 | 62 | 1.0 | 7.0 | 0.00 | 0.00 | 0.00 | 33 | 1012.1 |
| 20260504203727 | 77 | 39 | 0.0 | 5.0 | 0.00 | 0.00 | 0.00 | 33 | 1012.3 |
| 20260504203455 | 76 | 79 | 1.0 | 7.0 | 0.00 | 0.00 | 0.00 | 32 | 1012.3 |
| 20260504202725 | 76 | 39 | 2.0 | 7.0 | 0.00 | 0.00 | 0.00 | 33 | 1012.3 |
| 20260504202224 | 76 | 302 | 2.0 | 6.0 | 0.00 | 0.00 | 0.00 | 34 | 1012.3 |
| 20260504201723 | 76 | 73 | 2.0 | 5.0 | 0.00 | 0.00 | 0.00 | 34 | 1012.3 |
| 20260504201223 | 76 | 109 | 2.0 | 5.0 | 0.00 | 0.00 | 0.00 | 34 | 1012.4 |
| 20260504200723 | 76 | 63 | 3.0 | 7.0 | 0.00 | 0.00 | 0.00 | 34 | 1012.6 |
| 20260504200222 | 76 | 109 | 2.0 | 7.0 | 0.00 | 0.00 | 0.00 | 35 | 1012.6 |
| 20260504195723 | 76 | 93 | 2.0 | 6.0 | 0.00 | 0.00 | 0.00 | 35 | 1012.6 |
| 20260504195223 | 75 | 346 | 2.0 | 6.0 | 0.00 | 0.00 | 0.00 | 36 | 1012.6 |
| 20260504194717 | 75 | 69 | 2.0 | 7.0 | 0.00 | 0.00 | 0.00 | 36 | 1012.6 |
| 20260504194211 | 75 | 52 | 2.0 | 7.0 | 0.00 | 0.00 | 0.00 | 35 | 1012.8 |
| 20260504193704 | 74 | 66 | 3.0 | 8.0 | 0.00 | 0.00 | 0.00 | 36 | 1012.8 |
| 20260504193426 | 74 | 76 | 3.0 | 8.0 | 0.00 | 0.00 | 0.00 | 36 | 1012.8 |
| 20260504192704 | 74 | 97 | 2.0 | 7.0 | 0.00 | 0.00 | 0.00 | 36 | 1012.9 |
| 20260504192203 | 74 | 58 | 1.0 | 5.0 | 0.00 | 0.00 | 0.00 | 36 | 1013.0 |
| 20260504191926 | 74 | 355 | 2.0 | 7.0 | 0.00 | 0.00 | 0.00 | 37 | 1013.0 |
| 20260504191429 | 73 | 343 | 2.0 | 7.0 | 0.00 | 0.00 | 0.00 | 37 | 1013.0 |
| 20260504190704 | 74 | 127 | 1.0 | 6.0 | 0.00 | 0.00 | 0.00 | 37 | 1013.1 |
| 20260504190202 | 73 | 60 | 1.0 | 5.0 | 0.00 | 0.00 | 0.00 | 37 | 1013.1 |
| 20260504185702 | 72 | 72 | 2.0 | 7.0 | 0.00 | 0.00 | 0.00 | 37 | 1013.1 |
| 20260504185202 | 73 | 84 | 1.0 | 7.0 | 0.00 | 0.00 | 0.00 | 37 | 1013.3 |
| 20260504184702 | 72 | 61 | 1.0 | 4.0 | 0.00 | 0.00 | 0.00 | 39 | 1013.4 |
| 20260504184203 | 72 | 52 | 1.0 | 4.0 | 0.00 | 0.00 | 0.00 | 38 | 1013.3 |
| 20260504183702 | 72 | 62 | 1.0 | 3.0 | 0.00 | 0.00 | 0.00 | 39 | 1013.3 |
| 20260504183202 | 72 | 248 | 1.0 | 3.0 | 0.00 | 0.00 | 0.00 | 38 | 1013.4 |
| 20260504182702 | 72 | 359 | 0.0 | 2.0 | 0.00 | 0.00 | 0.00 | 40 | 1013.4 |
| 20260504182202 | 71 | 84 | 1.0 | 4.0 | 0.00 | 0.00 | 0.00 | 39 | 1013.4 |
| 20260504181702 | 71 | 85 | 1.0 | 4.0 | 0.00 | 0.00 | 0.00 | 39 | 1013.3 |
| 20260504181203 | 71 | 127 | 1.0 | 4.0 | 0.00 | 0.00 | 0.00 | 39 | 1013.3 |
| 20260504180202 | 71 | 29 | 1.0 | 4.0 | 0.00 | 0.00 | 0.00 | 41 | 1013.3 |
| 20260504175701 | 70 | 78 | 1.0 | 4.0 | 0.00 | 0.00 | 0.00 | 41 | 1013.3 |
| 20260504175202 | 71 | 344 | 0.0 | 3.0 | 0.00 | 0.00 | 0.00 | 40 | 1013.3 |
| 20260504174701 | 71 | 49 | 0.0 | 4.0 | 0.00 | 0.00 | 0.00 | 40 | 1013.2 |
| 20260504174201 | 71 | 148 | 0.0 | 4.0 | 0.00 | 0.00 | 0.00 | 41 | 1013.2 |
| 20260504173701 | 70 | 136 | 0.0 | 3.0 | 0.00 | 0.00 | 0.00 | 42 | 1013.2 |
| 20260504173202 | 69 | 4 | 1.0 | 4.0 | 0.00 | 0.00 | 0.00 | 43 | 1013.2 |
| 20260504172701 | 69 | 23 | 1.0 | 4.0 | 0.00 | 0.00 | 0.00 | 43 | 1013.1 |
| 20260504172430 | 69 | 239 | 1.0 | 3.0 | 0.00 | 0.00 | 0.00 | 44 | 1013.2 |
| 20260504171704 | 69 | 327 | 0.0 | 2.0 | 0.00 | 0.00 | 0.00 | 44 | 1013.2 |
| 20260504171201 | 69 | 302 | 0.0 | 0.0 | 0.00 | 0.00 | 0.00 | 44 | 1013.1 |
| 20260504170926 | 69 | 75 | 0.0 | 0.0 | 0.00 | 0.00 | 0.00 | 44 | 1013.0 |
| 20260504170430 | 69 | 86 | 0.0 | 0.0 | 0.00 | 0.00 | 0.00 | 43 | 1013.2 |
| 20260504160131 | 67 | 213 | 0.0 | 1.0 | 0.00 | 0.00 | 0.00 | 48 | 1012.8 |
| 20260504151130 | 65 | 244 | 0.0 | 2.0 | 0.00 | 0.00 | 0.00 | 54 | 1012.6 |
| 20260504150629 | 65 | 197 | 0.0 | 1.0 | 0.00 | 0.00 | 0.00 | 54 | 1012.6 |
| 20260504150129 | 65 | 150 | 0.0 | 2.0 | 0.00 | 0.00 | 0.00 | 54 | 1012.5 |
| 20260504141335 | 63 | 95 | 0.0 | 0.0 | 0.00 | 0.00 | 0.00 | 55 | 1012.3 |
| 20260504140831 | 63 | 94 | 0.0 | 0.0 | 0.00 | 0.00 | 0.00 | 56 | 1012.3 |
| 20260504110519 | 65 | 177 | 0.0 | 3.0 | 0.00 | 0.00 | 0.00 | 48 | 1010.7 |
| 20260504110252 | 65 | 212 | 0.0 | 1.0 | 0.00 | 0.00 | 0.00 | 47 | 1010.6 |
| 20260504100503 | 65 | 139 | 1.0 | 3.0 | 0.00 | 0.00 | 0.00 | 46 | 1010.6 |
| 20260504081430 | 68 | 269 | 1.0 | 3.0 | 0.00 | 0.00 | 0.00 | 41 | 1011.9 |
| 20260504080931 | 68 | 299 | 2.0 | 6.0 | 0.00 | 0.00 | 0.00 | 40 | 1011.6 |
| 20260504080429 | 68 | 217 | 3.0 | 11.0 | 0.00 | 0.00 | 0.00 | 38 | 1011.4 |
| 20260504050415 | 71 | 18 | 3.0 | 7.0 | 0.00 | 0.00 | 0.00 | 43 | 1009.3 |
| 20260504045915 | 71 | 75 | 3.0 | 8.0 | 0.00 | 0.00 | 0.00 | 43 | 1009.3 |
| 20260504045411 | 71 | 70 | 2.0 | 8.0 | 0.00 | 0.00 | 0.00 | 42 | 1009.1 |
| 20260504044912 | 71 | 73 | 2.0 | 6.0 | 0.00 | 0.00 | 0.00 | 42 | 1009.1 |
| 20260504044411 | 72 | 77 | 2.0 | 5.0 | 0.00 | 0.00 | 0.00 | 42 | 1009.0 |
| 20260504043910 | 72 | 82 | 3.0 | 8.0 | 0.00 | 0.00 | 0.00 | 41 | 1008.9 |
| 20260504043410 | 72 | 89 | 3.0 | 8.0 | 0.00 | 0.00 | 0.00 | 41 | 1008.9 |
| 20260504043140 | 72 | 82 | 1.0 | 6.0 | 0.00 | 0.00 | 0.00 | 40 | 1008.9 |
| 20260504042411 | 72 | 124 | 1.0 | 4.0 | 0.00 | 0.00 | 0.00 | 42 | 1009.1 |
| 20260504041910 | 72 | 68 | 0.0 | 4.0 | 0.00 | 0.00 | 0.00 | 42 | 1009.0 |
| 20260504041411 | 72 | 116 | 1.0 | 5.0 | 0.00 | 0.00 | 0.00 | 42 | 1008.7 |
| 20260504040909 | 72 | 108 | 1.0 | 5.0 | 0.00 | 0.00 | 0.00 | 43 | 1008.8 |
| 20260504040407 | 73 | 96 | 1.0 | 6.0 | 0.00 | 0.00 | 0.00 | 41 | 1008.8 |
| 20260504040139 | 73 | 92 | 2.0 | 6.0 | 0.00 | 0.00 | 0.00 | 41 | 1008.8 |
| 20260504035407 | 74 | 88 | 1.0 | 5.0 | 0.00 | 0.00 | 0.00 | 41 | 1008.7 |
| 20260504034906 | 74 | 60 | 2.0 | 8.0 | 0.00 | 0.00 | 0.00 | 39 | 1008.4 |
| 20260504034407 | 74 | 110 | 3.0 | 8.0 | 0.00 | 0.00 | 0.00 | 39 | 1008.4 |
| 20260504033906 | 75 | 102 | 2.0 | 8.0 | 0.00 | 0.00 | 0.00 | 37 | 1008.3 |
| 20260504033407 | 75 | 99 | 3.0 | 8.0 | 0.00 | 0.00 | 0.00 | 39 | 1008.4 |
| 20260504032907 | 75 | 98 | 4.0 | 11.0 | 0.00 | 0.00 | 0.00 | 38 | 1008.2 |
| 20260504032404 | 76 | 67 | 4.0 | 11.0 | 0.00 | 0.00 | 0.00 | 36 | 1008.0 |
| 20260504031902 | 76 | 104 | 4.0 | 10.0 | 0.00 | 0.00 | 0.00 | 35 | 1007.9 |
| 20260504031403 | 77 | 51 | 3.0 | 9.0 | 0.00 | 0.00 | 0.00 | 34 | 1007.8 |
| 20260504030906 | 77 | 179 | 6.0 | 15.0 | 0.00 | 0.00 | 0.00 | 33 | 1007.3 |
| 20260504030406 | 77 | 193 | 8.0 | 15.0 | 0.00 | 0.00 | 0.00 | 33 | 1007.2 |
| 20260504025906 | 77 | 186 | 9.0 | 23.0 | 0.00 | 0.00 | 0.00 | 35 | 1007.0 |
| 20260504025407 | 77 | 217 | 6.0 | 23.0 | 0.00 | 0.00 | 0.00 | 33 | 1007.2 |
| 20260504024904 | 78 | 203 | 1.0 | 11.0 | 0.00 | 0.00 | 0.00 | 34 | 1007.5 |
| 20260504024632 | 78 | 170 | 1.0 | 6.0 | 0.00 | 0.00 | 0.00 | 35 | 1007.5 |
| 20260504023903 | 78 | 327 | 1.0 | 6.0 | 0.00 | 0.00 | 0.00 | 35 | 1007.3 |
| 20260504023402 | 79 | 269 | 1.0 | 3.0 | 0.00 | 0.00 | 0.00 | 35 | 1007.2 |
| 20260504022901 | 79 | 340 | 1.0 | 6.0 | 0.00 | 0.00 | 0.00 | 34 | 1007.1 |
| 20260504022403 | 79 | 52 | 2.0 | 8.0 | 0.00 | 0.00 | 0.00 | 34 | 1006.8 |
| 20260504021901 | 79 | 91 | 3.0 | 8.0 | 0.00 | 0.00 | 0.00 | 35 | 1006.7 |
| 20260504021408 | 80 | 62 | 1.0 | 5.0 | 0.00 | 0.00 | 0.00 | 35 | 1006.7 |
| 20260504020401 | 80 | 35 | 1.0 | 4.0 | 0.00 | 0.00 | 0.00 | 34 | 1006.7 |
| 20260504020135 | 81 | 27 | 1.0 | 5.0 | 0.00 | 0.00 | 0.00 | 34 | 1006.7 |
| 20260504015631 | 81 | 44 | 2.0 | 14.0 | 0.00 | 0.00 | 0.00 | 33 | 1006.6 |
| 20260504015128 | 81 | 82 | 3.0 | 14.0 | 0.00 | 0.00 | 0.00 | 33 | 1006.6 |
| 20260504014403 | 82 | 34 | 5.0 | 17.0 | 0.00 | 0.00 | 0.00 | 32 | 1006.5 |
| 20260504013900 | 83 | 225 | 6.0 | 17.0 | 0.00 | 0.00 | 0.00 | 30 | 1006.8 |
| 20260504013401 | 83 | 165 | 2.0 | 14.0 | 0.00 | 0.00 | 0.00 | 30 | 1006.6 |
| 20260504012900 | 83 | 248 | 0.0 | 3.0 | 0.00 | 0.00 | 0.00 | 29 | 1006.8 |
| 20260504012401 | 84 | 332 | 0.0 | 2.0 | 0.00 | 0.00 | 0.00 | 31 | 1006.8 |
| 20260504011900 | 84 | 295 | 1.0 | 5.0 | 0.00 | 0.00 | 0.00 | 30 | 1006.7 |
| 20260504011357 | 85 | 225 | 2.0 | 5.0 | 0.00 | 0.00 | 0.00 | 30 | 1006.9 |
| 20260504011136 | 85 | 328 | 2.0 | 5.0 | 0.00 | 0.00 | 0.00 | 31 | 1006.6 |
| 20260504010350 | 85 | 146 | 2.0 | 8.0 | 0.00 | 0.00 | 0.00 | 29 | 1006.3 |
| 20260504005845 | 86 | 68 | 4.0 | 13.0 | 0.00 | 0.00 | 0.00 | 29 | 1006.4 |
| 20260504005337 | 87 | 328 | 6.0 | 17.0 | 0.00 | 0.00 | 0.00 | 24 | 1006.5 |
| 20260504004835 | 86 | 237 | 8.0 | 18.0 | 0.00 | 0.00 | 0.00 | 24 | 1006.6 |
| 20260504004333 | 86 | 248 | 9.0 | 20.0 | 0.00 | 0.00 | 0.00 | 27 | 1006.4 |
| 20260504003833 | 86 | 173 | 12.0 | 22.0 | 0.00 | 0.00 | 0.00 | 27 | 1006.3 |
| 20260504003331 | 86 | 288 | 13.0 | 23.0 | 0.00 | 0.00 | 0.00 | 28 | 1006.0 |
| 20260504002830 | 86 | 262 | 14.0 | 27.0 | 0.00 | 0.00 | 0.00 | 27 | 1005.8 |
| 20260504002332 | 86 | 255 | 14.0 | 27.0 | 0.00 | 0.00 | 0.00 | 27 | 1005.9 |
| 20260504001834 | 87 | 212 | 14.0 | 26.0 | 0.00 | 0.00 | 0.00 | 26 | 1005.7 |
| 20260504001329 | 87 | 243 | 13.0 | 26.0 | 0.00 | 0.00 | 0.00 | 26 | 1005.6 |
| 20260504000830 | 87 | 245 | 14.0 | 31.0 | 0.00 | 0.00 | 0.00 | 26 | 1005.5 |
| 20260504000329 | 87 | 243 | 16.0 | 31.0 | 0.00 | 0.00 | 0.00 | 26 | 1005.6 |
| 20260503235829 | 87 | 269 | 16.0 | 28.0 | 0.00 | 0.00 | 0.00 | 24 | 1005.6 |
| 20260503235330 | 88 | 266 | 17.0 | 31.0 | 0.00 | 0.00 | 0.00 | 26 | 1005.9 |
| 20260503235052 | 88 | 246 | 15.0 | 31.0 | 0.00 | 0.00 | 0.00 | 26 | 1005.7 |
| 20260503234557 | 89 | 250 | 14.0 | 28.0 | 0.00 | 0.00 | 0.00 | 23 | 1005.7 |
| 20260503233829 | 89 | 255 | 10.0 | 25.0 | 0.00 | 0.00 | 0.00 | 24 | 1005.9 |
| 20260503233328 | 89 | 146 | 6.0 | 17.0 | 0.00 | 0.00 | 0.00 | 24 | 1006.0 |
| 20260503232831 | 89 | 159 | 7.0 | 17.0 | 0.00 | 0.00 | 0.00 | 27 | 1006.3 |
| 20260503232325 | 88 | 226 | 7.0 | 26.0 | 0.00 | 0.00 | 0.00 | 28 | 1006.4 |
| 20260503232052 | 89 | 264 | 5.0 | 26.0 | 0.00 | 0.00 | 0.00 | 30 | 1006.1 |
| 20260503231323 | 88 | 297 | 5.0 | 12.0 | 0.00 | 0.00 | 0.00 | 29 | 1006.3 |
| 20260503230831 | 87 | 326 | 4.0 | 13.0 | 0.00 | 0.00 | 0.00 | 32 | 1006.0 |
| 20260503225823 | 87 | 316 | 7.0 | 15.0 | 0.00 | 0.00 | 0.00 | 32 | 1006.0 |
| 20260503225322 | 87 | 348 | 7.0 | 15.0 | 0.00 | 0.00 | 0.00 | 33 | 1006.0 |
| 20260503224825 | 87 | 330 | 8.0 | 15.0 | 0.00 | 0.00 | 0.00 | 32 | 1005.9 |
| 20260503224322 | 87 | 331 | 7.0 | 14.0 | 0.00 | 0.00 | 0.00 | 32 | 1005.9 |
| 20260503223823 | 87 | 334 | 6.0 | 14.0 | 0.00 | 0.00 | 0.00 | 32 | 1005.9 |
| 20260503223320 | 87 | 6 | 5.0 | 12.0 | 0.00 | 0.00 | 0.00 | 32 | 1006.1 |
| 20260503222821 | 87 | 42 | 5.0 | 12.0 | 0.00 | 0.00 | 0.00 | 32 | 1006.1 |
| 20260503222320 | 87 | 307 | 5.0 | 10.0 | 0.00 | 0.00 | 0.00 | 31 | 1006.2 |
| 20260503221818 | 87 | 242 | 6.0 | 14.0 | 0.00 | 0.00 | 0.00 | 33 | 1006.2 |
| 20260503221319 | 86 | 308 | 7.0 | 15.0 | 0.00 | 0.00 | 0.00 | 31 | 1006.2 |
| 20260503220818 | 87 | 354 | 6.0 | 15.0 | 0.00 | 0.00 | 0.00 | 32 | 1006.3 |